Theta_e
325 319 305 306 298 295 291 294 295 297 298 305 316 317 316 317 313 305 329 335 337 340 345 346 346 349 350 348 348 349 349 346 345 344 345 345 344 344 342 341 343 344 346 348 348 347 344 343 343
319 312 307 301 293 289 289 290 290 295 298 302 316 317 316 315 321 323 326 338 341 343 346 345 344 347 349 349 348 348 348 346 345 344 344 344 342 342 340 340 342 341 340 344 345 346 344 343 343
310 308 302 294 285 283 286 289 290 292 296 303 314 319 315 299 305 315 332 339 342 341 344 343 343 345 346 348 348 347 347 345 343 342 342 342 341 340 338 339 339 341 338 337 344 343 340 339 338
311 312 305 288 284 288 288 292 292 295 304 304 314 314 306 303 303 310 319 333 339 341 342 342 345 345 347 346 347 347 346 346 344 342 340 339 339 339 340 339 339 336 336 337 340 338 336 335 334
310 309 296 289 289 290 292 293 292 294 297 295 306 308 302 301 305 309 311 316 314 323 331 336 340 344 345 346 346 346 344 345 343 341 339 339 338 338 339 337 336 336 335 335 335 334 333 332 332
301 305 292 289 289 293 294 293 293 291 293 293 294 306 297 301 302 306 308 309 310 311 314 316 319 328 339 343 345 345 344 343 342 341 339 338 339 338 338 336 335 334 334 334 333 332 331 330 330
302 300 292 292 291 293 293 295 291 290 290 290 293 292 297 295 301 305 306 307 308 308 309 311 313 316 322 335 339 341 342 341 341 341 339 338 338 339 338 337 336 335 335 334 335 333 331 330 330
305 302 293 294 290 290 295 294 294 291 287 295 294 287 288 294 299 301 305 305 304 305 307 307 309 311 315 329 330 334 337 337 337 337 335 332 333 334 334 333 335 338 336 335 333 332 331 332 330
311 297 291 294 294 290 294 293 295 295 290 290 291 290 293 295 297 297 297 300 300 302 303 305 306 308 311 322 324 328 331 333 333 332 329 326 330 330 327 329 332 337 335 335 335 334 334 331 327
303 297 294 299 294 290 291 292 294 291 288 288 288 291 293 293 293 292 292 294 296 296 300 302 303 305 308 316 317 328 333 333 334 333 330 328 328 329 330 325 327 332 332 334 336 335 331 323 316
302 295 300 296 297 299 293 291 293 290 286 287 286 287 289 289 289 290 290 291 292 294 297 298 299 304 305 308 312 316 320 329 334 331 332 330 329 326 327 326 325 326 321 326 329 327 323 319 316
295 299 300 300 301 300 293 293 289 290 288 291 290 289 288 287 286 287 288 289 290 291 293 296 297 299 303 305 307 310 313 315 317 328 331 330 328 325 325 326 324 324 325 322 323 322 320 317 311
295 297 295 295 294 292 291 287 288 288 290 291 290 289 287 287 286 287 287 288 289 289 291 293 294 296 299 302 304 306 307 309 313 316 321 325 330 327 326 325 324 323 322 321 320 320 319 317 312
291 296 293 292 291 290 287 287 288 286 290 288 287 287 287 287 286 286 286 286 286 287 289 291 291 294 297 298 301 303 304 307 309 311 309 310 313 317 327 325 324 324 323 322 321 320 318 316 311
289 286 288 289 293 291 293 283 283 287 287 285 285 285 286 286 287 286 287 286 287 287 288 288 289 292 293 295 297 300 302 304 305 305 306 306 308 308 310 326 324 325 325 324 321 319 317 315 310
284 283 279 285 288 290 289 278 283 287 285 283 284 284 284 285 286 286 287 287 287 287 287 289 290 289 290 292 294 296 299 300 301 302 303 303 305 306 307 311 318 325 325 324 323 321 318 315 311
278 274 275 278 285 287 285 278 283 285 283 282 283 283 284 284 285 286 287 287 287 287 287 288 288 288 289 290 292 294 295 296 297 299 299 300 302 303 304 307 309 312 321 326 325 322 321 316 314
274 273 276 276 281 281 279 278 281 283 282 281 282 282 282 283 283 285 286 287 287 287 288 288 288 288 289 289 290 291 292 293 293 294 295 298 299 300 302 303 304 306 306 312 325 323 322 319 318
274 274 272 274 280 279 276 276 278 280 280 280 280 281 282 282 284 285 285 286 286 287 286 286 287 287 288 287 287 287 287 289 291 292 293 294 296 298 298 299 300 300 302 304 308 323 320 314 308
275 274 273 278 281 279 278 275 278 278 278 279 279 279 280 282 283 284 284 284 284 285 285 286 286 286 287 287 287 288 288 288 289 291 291 292 293 295 296 296 296 298 298 301 302 305 313 316 308
273 273 273 276 280 279 279 274 275 277 278 279 278 279 280 280 281 282 283 282 283 283 284 285 286 286 286 287 287 287 287 287 287 288 289 290 291 292 293 293 294 295 297 297 299 300 302 307 307
273 275 275 277 275 270 280 263 274 275 275 276 276 276 277 279 280 281 282 282 282 282 283 284 285 286 286 287 286 285 284 283 285 286 288 288 290 290 291 291 292 293 294 295 296 298 299 303 306
274 276 276 277 274 270 271 266 271 274 273 273 274 276 277 278 279 280 281 282 283 282 282 282 283 285 285 285 286 285 284 285 286 286 286 287 288 288 289 289 290 291 293 294 294 294 296 300 303
277 276 276 274 272 261 267 267 267 271 274 273 274 276 277 277 278 279 281 281 281 282 282 282 283 283 284 284 284 284 284 284 283 284 284 285 286 287 287 287 287 289 290 291 293 294 294 296 300
275 271 258 260 258 261 269 265 269 273 274 274 274 275 276 277 277 278 278 279 279 280 281 282 282 282 283 283 283 283 283 283 283 283 283 283 284 284 285 286 285 286 287 290 291 292 293 295 296
272 268 262 257 259 261 268 262 269 275 276 275 276 276 276 276 276 277 278 278 278 279 279 280 281 281 282 282 283 283 283 283 283 283 283 283 283 284 285 285 285 285 286 287 289 291 292 293 294
270 266 270 255 249 255 263 269 274 275 273 273 274 274 274 275 276 276 277 278 278 278 279 279 279 280 281 281 282 282 283 282 282 283 283 283 283 284 285 284 283 284 284 286 287 289 289 290 292
272 273 263 258 255 254 261 262 265 273 273 273 272 273 274 275 276 276 277 278 278 278 279 279 280 279 280 280 281 282 282 282 282 282 282 282 282 283 283 283 283 283 283 284 285 287 288 288 290
268 268 265 262 260 255 255 264 266 272 275 275 275 274 274 275 275 276 277 278 278 278 278 279 279 279 280 281 281 281 281 282 282 281 281 281 282 282 282 281 281 282 282 283 284 285 287 287 288
270 267 266 259 258 260 261 262 274 273 276 275 274 276 275 276 276 276 276 277 277 277 277 278 279 279 280 280 281 281 281 281 280 280 281 281 280 281 280 280 280 280 281 282 282 284 286 286 286
Wind_Speed
11 6 1 4 4 5 1 3 3 8 6 7 6 16 17 11 4 5 6 4 2 5 3 8 10 10 12 11 12 11 11 11 11 11 11 11 11 11 11 10 8 4 8 12 14 13 13 11 11
6 5 2 3 6 3 2 6 7 5 5 5 9 7 9 10 11 3 5 5 3 4 5 6 7 6 14 13 12 12 10 9 10 10 10 10 9 9 9 9 8 6 6 9 11 14 12 9 8
7 3 4 5 4 3 2 5 10 7 10 1 5 6 8 13 19 17 18 1 4 4 4 6 6 5 10 11 13 11 8 8 8 8 8 8 8 8 8 9 7 3 6 5 10 11 6 7 7
3 6 5 6 6 6 4 8 8 7 7 14 3 14 13 17 13 16 26 15 2 5 4 6 6 5 7 9 10 9 8 8 7 7 6 6 6 7 7 7 4 6 6 4 7 5 4 5 6
5 4 5 4 7 3 6 13 14 12 5 10 10 6 7 14 21 20 25 19 20 19 16 12 3 6 9 9 9 9 7 7 7 7 6 5 6 5 7 8 7 5 5 5 4 3 3 4 5
6 4 4 4 4 10 5 15 6 14 10 12 10 5 8 16 23 21 20 19 20 20 18 18 23 22 7 9 9 8 8 7 6 6 6 6 6 6 6 6 6 5 5 4 4 3 3 3 4
7 4 7 8 5 6 13 7 16 12 14 16 10 7 4 26 24 16 16 17 21 22 22 19 18 19 23 3 9 9 8 8 7 6 5 4 4 5 6 5 6 6 5 5 4 3 2 2 3
4 4 10 2 6 6 8 6 17 18 21 2 12 12 9 22 19 14 12 20 23 22 21 21 18 17 16 14 3 9 8 7 7 6 6 4 3 4 5 6 5 5 5 5 4 3 2 1 1
2 5 8 5 5 5 10 7 13 14 21 27 12 13 12 16 16 16 17 25 22 21 21 20 20 18 17 13 14 5 8 10 7 5 5 4 2 3 3 4 6 6 6 5 5 4 3 1 2
6 3 8 7 12 17 20 16 8 12 20 18 19 16 16 17 16 26 25 22 24 23 19 20 19 18 17 12 14 13 7 3 5 6 5 3 4 4 4 5 7 7 7 7 7 6 4 2 0
4 4 16 16 16 11 17 28 14 8 16 18 18 16 17 20 24 24 22 20 19 19 15 21 20 20 17 12 10 8 8 8 4 5 7 6 4 4 3 3 3 3 5 3 4 3 2 3 2
15 15 12 12 13 9 17 15 23 22 11 14 15 14 19 23 22 20 19 18 21 20 19 19 20 16 15 10 10 11 9 9 9 12 5 4 4 5 5 4 4 4 4 5 4 3 4 4 4
18 13 20 21 25 24 23 25 16 19 15 14 15 20 22 20 20 18 17 17 17 18 21 20 18 17 16 16 11 10 12 10 11 11 16 13 5 5 5 5 4 4 4 4 4 4 4 5 5
6 19 19 22 23 19 23 13 6 14 12 14 16 18 18 19 19 18 21 20 19 18 19 17 18 18 17 16 16 11 11 12 11 11 15 18 15 13 5 5 6 5 5 5 5 5 4 4 4
15 20 14 16 2 4 3 20 14 7 10 14 16 16 18 18 17 19 16 17 17 15 16 18 18 17 18 15 12 11 11 12 11 11 15 17 14 16 15 7 6 7 7 8 6 5 4 4 3
6 6 5 12 10 8 8 6 8 5 9 13 13 13 15 17 17 16 16 16 16 16 19 17 15 19 18 15 12 10 12 9 10 10 12 18 17 18 13 10 12 10 7 7 7 6 6 5 5
10 4 7 5 18 4 8 9 6 6 9 12 11 11 12 13 15 15 14 14 15 15 16 16 17 18 16 15 12 11 11 9 10 10 12 16 16 17 13 10 11 14 12 8 8 7 7 6 6
2 6 6 6 9 21 18 13 6 6 9 9 9 9 10 11 13 11 13 12 13 14 15 15 13 16 15 11 10 8 8 10 10 11 12 15 12 15 13 11 13 13 12 13 8 10 7 6 8
6 8 9 3 2 9 8 9 5 5 5 7 6 7 8 8 7 7 9 9 10 12 14 16 16 16 13 12 12 11 11 10 9 9 12 15 16 16 15 11 13 14 12 15 16 10 9 7 3
7 7 5 3 5 7 8 6 3 3 3 4 4 5 5 4 5 6 6 7 7 8 10 12 13 13 12 10 10 6 9 8 8 9 11 13 14 15 14 14 13 14 12 14 16 15 11 6 7
6 5 2 4 4 6 6 1 3 2 3 4 5 4 5 6 7 7 7 6 6 8 9 9 10 10 10 10 8 8 6 8 9 11 10 12 13 14 14 14 12 12 11 11 14 13 15 13 4
3 2 2 5 4 4 3 4 4 4 3 2 3 4 4 5 5 4 5 6 5 5 6 6 9 9 10 10 9 11 8 9 9 9 10 11 12 12 13 14 13 13 10 13 12 12 12 12 11
2 1 3 2 4 4 5 4 4 5 5 4 1 3 5 6 7 8 8 7 6 6 6 6 6 7 8 8 8 8 9 7 7 8 12 13 13 13 12 13 12 12 10 12 13 15 14 10 10
3 3 5 4 3 5 5 4 4 5 5 4 2 3 4 6 8 8 7 7 6 6 6 6 7 7 8 7 7 8 9 10 10 11 10 10 9 10 13 14 11 11 11 12 12 13 15 14 12
7 5 4 7 7 5 3 3 8 3 4 7 7 5 4 5 6 8 8 8 8 7 7 6 7 9 8 8 7 7 8 8 9 9 9 12 10 9 12 13 14 11 12 12 11 13 13 13 14
4 4 6 4 1 5 5 5 5 3 5 4 5 4 4 6 7 8 9 8 7 7 7 7 7 7 7 7 8 6 6 5 6 8 8 8 8 9 12 12 12 14 14 13 11 10 10 12 12
4 6 3 10 1 4 3 7 3 1 3 4 6 5 6 8 8 9 10 8 7 7 7 6 7 7 8 7 6 7 5 6 8 10 8 7 10 10 12 13 13 13 13 14 13 10 13 13 12
6 5 4 5 3 5 6 6 7 6 8 8 6 8 7 8 9 9 9 8 6 6 7 7 7 7 8 7 6 5 7 7 8 8 10 10 11 12 13 13 13 14 14 13 13 11 13 15 11
4 2 7 6 3 6 2 9 7 6 5 9 8 7 7 9 9 8 9 9 7 6 6 7 7 7 8 7 6 7 7 7 7 7 9 10 12 12 13 13 14 14 14 14 12 13 16 17 16
1 3 4 7 5 1 3 11 1 5 6 5 6 7 8 7 8 8 9 8 8 7 7 7 7 7 9 7 6 7 7 6 7 9 10 10 11 11 12 13 13 14 14 13 13 14 14 16 18
Wind_Direction
332 321 21 40 61 67 115 52 345 5 50 338 56 81 90 59 22 95 324 14 141 121 210 151 152 163 140 134 121 113 109 118 116 116 115 112 113 110 108 100 91 103 91 113 115 107 103 100 102
339 339 5 75 85 87 307 2 351 325 332 281 67 46 47 57 33 35 352 4 101 115 104 133 135 168 140 128 126 102 109 117 118 119 120 119 116 112 110 109 93 82 82 84 95 97 93 102 103
15 40 39 66 71 72 311 357 303 299 319 45 97 61 46 348 342 355 328 23 88 75 106 116 110 142 123 116 111 110 118 124 125 127 125 127 128 123 116 117 116 127 135 140 77 80 95 95 91
103 358 20 67 93 34 12 316 323 321 359 24 78 85 104 45 355 342 358 2 92 116 66 121 124 133 128 121 110 118 125 120 121 122 121 124 127 129 125 124 111 126 132 107 93 108 104 89 82
73 59 50 93 55 26 23 10 10 41 44 13 332 74 68 4 354 2 9 16 29 14 18 5 109 145 132 125 126 126 135 115 119 120 123 125 125 124 125 120 114 135 134 144 143 136 102 80 76
70 98 94 77 78 29 15 19 54 32 17 3 27 70 76 355 360 5 7 19 30 27 21 16 13 355 152 138 134 131 122 124 116 114 123 135 141 142 138 137 143 158 164 172 177 160 136 105 87
103 96 126 116 103 41 15 11 30 44 29 14 317 55 52 3 4 0 9 21 27 26 25 15 9 358 5 249 151 146 142 139 137 130 128 135 151 149 151 160 176 171 179 183 174 165 155 116 92
88 76 142 65 97 62 9 60 49 50 33 138 16 28 6 352 357 3 17 34 31 25 20 14 7 6 360 350 227 154 150 149 150 150 157 160 174 195 185 195 191 177 197 199 196 195 187 157 69
341 96 163 123 101 82 22 85 70 64 70 59 63 53 24 8 17 21 30 30 26 20 19 11 7 5 360 355 355 297 168 157 161 168 179 179 190 229 239 219 218 205 200 194 199 203 212 144 76
40 91 134 80 103 93 62 47 81 54 43 44 42 34 29 28 28 35 34 27 17 19 15 11 11 2 3 359 2 356 325 296 174 168 178 219 212 212 213 233 242 228 215 212 212 214 200 148 299
44 65 108 114 120 79 91 61 45 46 45 35 32 25 26 28 33 34 34 35 30 18 15 14 10 6 1 4 2 5 351 351 326 292 177 199 201 210 219 218 222 229 229 231 239 238 208 215 226
92 59 68 43 71 67 65 85 63 53 61 41 41 38 42 32 34 33 33 24 20 26 14 19 19 6 2 8 11 5 2 2 357 329 295 254 208 206 214 216 211 209 205 220 220 220 229 232 234
71 81 78 79 79 76 71 67 60 48 44 44 48 41 40 35 30 30 31 31 25 26 15 15 14 13 11 20 7 7 8 8 355 354 15 339 258 232 213 220 213 218 201 209 217 220 227 229 221
105 77 74 71 73 75 70 40 73 25 52 54 45 51 51 46 31 26 25 21 22 20 18 13 18 10 16 11 9 7 8 6 6 7 13 1 2 348 271 234 218 229 213 211 212 212 217 232 225
107 99 83 31 51 122 76 41 55 28 37 44 40 41 43 39 36 36 28 24 16 18 17 17 15 15 22 5 12 10 15 5 13 11 13 6 8 356 355 289 253 232 218 222 220 214 202 218 220
46 46 57 30 6 18 95 63 51 35 50 50 43 42 40 39 36 32 28 28 23 20 19 17 16 13 16 11 9 6 17 1 14 9 12 358 9 355 355 354 348 309 242 231 224 216 216 218 205
22 67 26 24 13 107 94 112 90 63 65 58 47 46 43 36 35 32 28 24 20 21 20 17 15 15 13 11 9 12 6 5 13 4 18 0 13 348 356 352 351 336 317 228 226 225 222 211 212
59 104 56 41 6 67 85 98 76 56 62 55 46 41 42 36 26 22 20 19 16 16 18 18 18 14 10 12 9 11 8 14 10 4 12 354 10 360 356 358 358 359 337 345 266 229 218 225 222
92 84 92 15 353 66 76 95 83 51 52 51 38 32 32 25 355 6 16 9 11 15 14 13 12 11 11 10 7 7 1 3 8 8 360 360 4 358 0 2 2 2 340 347 335 286 209 217 177
48 83 50 53 5 94 123 98 109 82 74 70 54 40 31 10 2 359 1 4 353 4 7 11 12 10 12 7 4 1 349 355 2 356 359 359 357 0 2 3 358 350 341 346 355 340 331 250 185
41 70 13 128 93 53 135 48 206 117 108 66 40 26 20 8 355 350 349 345 343 4 360 2 3 6 13 7 1 359 353 355 0 359 354 351 353 356 358 359 354 351 351 342 347 340 340 328 260
74 338 201 126 84 155 5 271 267 191 160 77 27 19 356 350 333 320 334 336 348 344 337 350 358 358 6 4 7 7 4 358 347 341 339 344 350 350 352 355 350 348 346 341 342 336 330 330 326
93 39 127 99 91 83 342 71 259 137 225 209 237 354 338 332 333 332 333 331 322 342 343 342 346 353 354 0 5 3 356 346 338 337 339 342 343 346 348 350 344 343 342 338 335 333 328 317 318
287 124 47 55 63 35 269 110 260 192 206 172 209 255 303 316 317 317 312 320 318 328 341 341 351 340 347 350 352 355 348 340 341 342 340 340 335 335 339 342 340 335 333 334 333 327 324 322 319
46 52 352 5 15 209 336 36 245 212 179 170 190 224 269 293 303 305 315 317 319 318 323 329 346 338 338 343 345 340 333 332 331 332 331 331 331 333 332 333 332 330 326 324 327 328 322 321 318
30 119 137 204 310 277 331 244 255 214 187 172 191 228 281 296 308 311 304 304 308 295 307 309 327 320 324 326 326 324 319 327 323 325 321 315 318 319 320 325 320 319 321 320 320 320 319 315 314
297 47 146 103 71 42 270 286 266 168 200 237 248 258 279 295 308 300 301 301 303 295 299 296 308 305 308 313 311 314 312 317 316 316 315 315 313 313 318 319 318 317 315 316 318 317 318 319 313
86 144 49 7 52 318 291 279 246 217 226 238 248 247 272 293 306 305 304 301 297 286 294 302 291 282 286 295 298 306 303 305 307 307 309 312 312 317 317 316 315 316 315 313 313 314 315 316 314
10 53 54 107 106 159 281 271 213 200 225 226 237 246 272 293 297 293 296 296 288 287 291 284 283 290 294 286 292 297 300 303 300 300 304 308 309 311 313 313 312 312 312 313 310 308 311 315 313
258 184 122 115 265 176 139 273 219 218 231 202 235 273 291 283 283 288 287 289 296 288 289 278 287 288 283 272 273 279 286 292 299 304 307 307 305 308 308 308 307 307 309 308 307 306 310 310 314